Wind_Speed
29 31 26 24 30 28 32 27 29 28 24 21 27 30 34 33 34 36 36 34 33 29 26 24 22 20 20 19 19 18 15 13
29 30 26 21 28 21 21 22 20 20 20 17 23 28 40 37 35 38 36 36 35 32 30 27 23 21 23 21 20 18 16 16
31 29 27 20 22 18 21 15 22 17 18 18 28 31 34 32 32 34 34 38 38 35 31 27 23 24 23 23 20 20 21 19
28 27 26 20 20 15 15 23 23 19 15 25 17 35 35 33 33 36 36 36 35 34 34 29 29 27 26 24 22 21 20 18
24 23 25 20 19 16 18 18 24 20 20 21 20 34 38 32 34 29 37 37 39 38 37 33 31 29 28 27 24 23 21 21
22 25 21 19 17 18 22 22 22 20 26 23 27 33 40 33 28 25 42 33 43 43 40 37 33 33 31 27 26 26 25 25
22 21 18 20 17 19 19 22 26 26 30 26 24 41 43 41 29 29 35 37 36 44 39 36 37 35 33 29 27 28 26 25
25 24 22 20 19 18 19 21 26 25 29 30 28 35 40 42 38 37 30 32 35 42 42 38 39 38 33 30 29 28 27 29
27 22 19 19 21 21 21 22 22 23 26 30 34 36 39 49 39 40 35 31 35 40 44 39 42 37 35 33 33 31 29 28
27 24 19 19 20 22 21 17 19 23 25 22 33 40 32 41 49 38 40 38 40 40 44 42 41 36 37 36 33 29 29 27
24 22 19 20 19 21 20 20 19 24 24 24 25 33 34 43 45 51 48 37 41 42 45 47 42 36 35 32 28 27 27 23
21 22 21 21 20 22 19 21 22 27 24 27 19 24 28 34 50 47 39 43 43 43 46 35 30 27 27 23 24 23 22 20
18 20 22 19 19 22 19 18 18 23 21 20 24 27 26 37 45 49 25 24 26 31 30 32 31 25 20 21 21 20 17 17
12 16 14 12 18 21 19 17 14 20 14 23 34 30 26 32 26 25 25 25 25 27 26 23 21 21 20 22 20 17 14 16
10 10 9 10 14 17 17 14 10 8 11 13 23 25 22 22 19 16 16 17 19 18 19 19 20 20 20 20 15 12 15 16
9 9 6 5 12 18 18 14 12 10 13 11 11 15 18 20 20 16 13 13 13 15 17 19 20 19 18 19 20 20 18 18
11 11 9 9 8 17 21 16 16 10 12 6 9 14 17 16 18 20 16 14 15 15 17 18 17 18 20 20 20 21 22 26
9 11 8 12 8 10 18 19 17 11 12 11 12 11 12 18 17 17 16 14 14 14 15 15 16 19 20 20 21 24 28 30
8 9 8 7 5 7 5 10 13 10 10 13 14 14 11 11 12 14 13 14 14 14 13 13 15 18 20 23 26 27 29 27
7 8 8 5 5 1 4 7 9 8 6 7 9 11 15 14 13 11 12 11 11 11 11 13 17 21 23 24 26 26 28 30
Wind_Direction
283 288 294 294 298 277 264 248 238 232 237 258 244 240 198 209 221 221 206 200 200 200 197 198 209 214 220 229 239 244 250 259
288 286 290 294 297 269 249 230 227 203 231 229 189 218 205 214 217 209 209 202 200 200 202 202 213 219 226 232 243 252 255 254
289 289 286 296 295 288 239 213 214 204 183 215 187 205 208 216 211 209 206 213 201 200 209 204 215 227 233 237 248 250 254 256
293 282 284 291 295 271 223 208 193 196 195 203 205 192 210 209 212 216 216 221 221 207 211 212 220 227 234 242 248 253 257 263
302 286 287 293 293 273 226 201 192 203 213 200 215 206 206 209 213 215 218 223 216 208 214 218 222 229 236 242 250 256 267 268
299 290 287 287 277 275 240 229 217 211 217 210 217 205 208 206 211 221 214 216 215 214 213 218 225 231 236 249 252 264 267 269
295 289 287 290 269 277 247 234 227 217 215 245 230 215 213 220 217 212 214 223 230 223 219 220 231 238 238 252 256 264 271 279
292 292 285 285 269 262 269 232 235 230 229 229 237 212 201 214 218 228 232 231 230 228 218 229 235 239 243 251 257 267 272 277
290 290 287 282 262 248 263 247 246 248 239 240 223 214 221 218 223 246 239 250 240 240 228 238 239 241 246 251 258 263 270 274
286 291 289 279 261 245 252 263 253 256 259 236 227 221 225 230 232 227 234 251 246 242 236 238 237 247 255 259 259 273 273 275
284 291 292 281 263 244 248 251 259 254 250 231 229 227 239 233 231 232 243 243 246 251 242 249 248 258 253 256 263 270 272 274
286 289 288 280 264 241 240 244 252 233 248 216 208 232 254 242 236 238 236 257 257 247 246 242 245 260 255 257 263 265 270 276
288 296 295 283 253 236 237 247 249 230 244 234 229 226 243 244 252 248 235 258 245 238 234 243 252 245 249 261 262 262 264 271
296 314 299 261 240 232 239 245 228 237 244 232 235 236 232 221 228 221 213 217 217 222 222 226 227 243 254 256 255 259 267 267
301 326 321 254 229 227 244 237 220 224 231 229 227 215 190 186 189 184 188 201 205 211 217 229 240 251 248 247 242 251 262 266
300 314 336 317 243 236 238 237 203 220 224 215 194 195 190 192 201 204 210 214 213 225 238 242 241 244 241 244 239 237 247 257
290 297 308 311 319 250 231 222 226 233 188 210 230 211 202 203 212 216 223 222 233 227 242 241 237 231 231 237 242 253 262 267
288 281 300 293 329 307 227 232 220 227 238 233 231 213 229 222 223 237 225 212 214 218 216 216 225 232 240 253 260 266 267 270
280 278 275 285 318 32 168 230 201 241 241 238 232 235 214 186 196 202 200 194 197 211 219 228 243 254 259 261 263 266 269 272
268 270 268 278 281 250 117 135 152 156 156 163 171 174 181 188 200 207 220 215 219 235 248 256 258 259 258 259 259 263 269 276
Height
5759 5754 5754 5753 5748 5743 5740 5744 5745 5748 5755 5759 5762 5761 5768 5773 5777 5780 5787 5791 5797 5800 5802 5805 5808 5810 5813 5815 5817 5817 5819 5820
5753 5749 5748 5747 5744 5738 5736 5739 5739 5744 5753 5754 5756 5760 5764 5769 5773 5776 5783 5788 5793 5796 5800 5802 5805 5807 5810 5812 5814 5815 5816 5817
5748 5745 5743 5743 5739 5737 5735 5736 5739 5744 5749 5749 5752 5757 5761 5766 5771 5775 5780 5785 5788 5793 5797 5798 5801 5804 5807 5809 5810 5812 5813 5813
5741 5741 5739 5739 5737 5733 5733 5736 5737 5739 5744 5748 5747 5745 5758 5764 5768 5773 5777 5782 5784 5788 5793 5794 5798 5801 5803 5806 5807 5809 5810 5809
5737 5737 5736 5733 5734 5732 5731 5732 5735 5737 5742 5745 5747 5751 5756 5760 5764 5767 5772 5776 5780 5783 5788 5791 5795 5798 5800 5803 5804 5805 5806 5805
5733 5732 5731 5730 5731 5731 5729 5730 5733 5735 5738 5741 5744 5747 5753 5757 5760 5763 5767 5772 5775 5779 5782 5787 5791 5794 5797 5799 5800 5801 5802 5801
5729 5728 5727 5725 5726 5728 5727 5727 5728 5731 5733 5734 5740 5744 5748 5751 5755 5761 5765 5770 5772 5775 5779 5783 5786 5789 5792 5795 5796 5796 5797 5797
5724 5724 5723 5722 5722 5723 5725 5724 5724 5727 5730 5732 5736 5737 5743 5748 5752 5756 5761 5765 5767 5770 5773 5777 5781 5784 5788 5790 5791 5791 5792 5792
5719 5719 5719 5718 5718 5717 5719 5722 5720 5723 5726 5728 5733 5735 5741 5744 5748 5750 5756 5759 5761 5765 5769 5771 5776 5780 5784 5786 5786 5787 5787 5787
5716 5715 5714 5713 5713 5713 5713 5718 5720 5720 5719 5723 5727 5731 5737 5741 5744 5747 5750 5753 5756 5759 5763 5767 5771 5776 5778 5780 5782 5782 5782 5782
5712 5710 5709 5708 5708 5708 5710 5712 5715 5717 5719 5719 5722 5726 5729 5734 5739 5741 5745 5747 5749 5754 5759 5762 5766 5770 5773 5775 5776 5777 5778 5778
5708 5706 5704 5703 5703 5705 5707 5710 5712 5715 5715 5717 5718 5721 5724 5728 5732 5735 5738 5741 5743 5749 5753 5759 5763 5766 5768 5769 5771 5773 5775 5775
5704 5702 5699 5697 5698 5701 5703 5706 5706 5708 5710 5711 5714 5717 5720 5724 5728 5731 5733 5736 5740 5746 5750 5754 5758 5761 5763 5765 5767 5768 5769 5770
5701 5698 5695 5694 5695 5696 5699 5700 5701 5703 5706 5707 5709 5713 5716 5718 5721 5725 5728 5733 5737 5742 5745 5750 5754 5756 5758 5760 5763 5764 5765 5767
5699 5697 5693 5692 5693 5694 5695 5696 5698 5700 5703 5704 5704 5708 5710 5714 5719 5723 5727 5731 5735 5738 5742 5746 5750 5752 5753 5756 5758 5760 5762 5763
5696 5696 5694 5692 5692 5694 5694 5695 5696 5699 5701 5702 5703 5705 5708 5713 5718 5721 5725 5729 5732 5735 5739 5742 5745 5746 5749 5751 5754 5757 5759 5759
5696 5695 5694 5693 5691 5690 5692 5693 5694 5697 5698 5701 5702 5705 5709 5712 5717 5721 5724 5726 5728 5730 5734 5737 5739 5743 5746 5749 5751 5753 5754 5755
5694 5695 5694 5692 5691 5687 5687 5689 5692 5695 5698 5701 5703 5706 5709 5711 5715 5719 5720 5722 5724 5728 5731 5734 5737 5740 5743 5746 5747 5749 5750 5749
5693 5694 5693 5692 5690 5689 5687 5688 5690 5694 5696 5698 5701 5704 5706 5710 5713 5716 5718 5719 5722 5726 5728 5729 5733 5737 5740 5742 5743 5745 5745 5745
5692 5692 5693 5692 5691 5690 5690 5691 5692 5694 5696 5698 5701 5703 5706 5708 5711 5713 5717 5717 5718 5721 5725 5728 5731 5734 5736 5737 5737 5739 5738 5738